Tampa, FL

4:20 PM EDT on August 20, 2017 (GMT -0400)
Tampa International

Weather History for KTPA - February, 2012

Change the Weather History Date:

Tuesday, February 28, 2012

  Actual Average Record
Temperature  
Mean Temperature 75 °F 65 °F  
Max Temperature 83 °F 74 °F 86 °F (1997)
Min Temperature 67 °F 56 °F 30 °F (1935)
Degree Days  
Heating Degree Days 0 3  
Month to date heating degree days 47 107  
Since 1 July heating degree days 205 471  
Cooling Degree Days 10 3  
Month to date cooling degree days 127 63  
Year to date cooling degree days 180 113  
Growing Degree Days 24 (Base 50)    
Moisture  
Dew Point 65 °F    
Average Humidity 72    
Maximum Humidity 93    
Minimum Humidity 51    
Precipitation  
Precipitation 0.00 in 0.09 in 3.14 in (1946)
Month to date precipitation 1.89 2.81  
Year to date precipitation 2.97 5.04  
Sea Level Pressure  
Sea Level Pressure 30.25 in    
Wind  
Wind Speed 5 mph (ENE)    
Max Wind Speed 12 mph    
Max Gust Speed 16 mph    
Visibility 8 miles    
Events      
T = Trace of Precipitation, MM = Missing Value Source: NWS Daily Summary

Daily Weather History Graph

Daily Weather History Graph

Search for Another Location

Airport or City:

Trip Planner

Search our weather history database for the weather conditions in past years. The results will help you decide how hot, cold, wet, or windy it might be!

Date:

Astronomy

Feb. 28, 2012 Rise Set
Actual Time 6:56 AM EST 6:29 PM EST
Civil Twilight 6:32 AM EST 6:53 PM EST
Nautical Twilight 6:05 AM EST 7:20 PM EST
Astronomical Twilight 5:38 AM EST 7:47 PM EST
Moon 10:39 AM EST (2/28) No Moon Set
Length of Visible Light 12h 20m
Length of Day
11h 33m
Waxing Crescent, 37% of the Moon is Illuminated
Feb 28
Waxing Crescent
Feb 29
First Quarter
Mar 8
Full
Mar 14
Last Quarter
Mar 22
New

Hourly Weather History & Observations

Time (EST) Temp. Heat Index Dew Point Humidity Pressure Visibility Wind Dir Wind Speed Gust Speed Precip Events Conditions
12:53 AM 69.1 °F - 64.9 °F 87% 30.27 in 10.0 mi Variable 5.8 mph - N/A   Partly Cloudy
1:19 AM 69.8 °F - 64.4 °F 83% 30.27 in 10.0 mi ENE 6.9 mph - N/A   Scattered Clouds
1:53 AM 69.1 °F - 64.9 °F 87% 30.27 in 10.0 mi East 3.5 mph - N/A   Scattered Clouds
2:53 AM 68.0 °F - 64.9 °F 90% 30.26 in 10.0 mi ENE 4.6 mph - N/A   Scattered Clouds
3:53 AM 68.0 °F - 64.9 °F 90% 30.25 in 10.0 mi Calm Calm - N/A   Scattered Clouds
4:10 AM 66.2 °F - 64.4 °F 94% 30.24 in 10.0 mi Variable 3.5 mph - N/A   Mostly Cloudy
4:53 AM 66.9 °F - 64.9 °F 93% 30.25 in 6.0 mi NE 6.9 mph - N/A   Overcast
5:53 AM 66.9 °F - 64.9 °F 93% 30.26 in 7.0 mi NE 5.8 mph - N/A   Overcast
5:55 AM 66.2 °F - 64.4 °F 94% 30.26 in 1.2 mi ENE 3.5 mph - N/A   Overcast
6:50 AM 68.0 °F - 66.2 °F 94% 30.27 in 0.5 mi ENE 4.6 mph - N/A   Overcast
6:53 AM 68.0 °F - 66.0 °F 93% 30.27 in 0.5 mi ENE 4.6 mph - N/A   Overcast
7:53 AM 68.0 °F - 66.0 °F 93% 30.28 in 0.5 mi ENE 4.6 mph - N/A   Mostly Cloudy
8:08 AM 68.0 °F - 66.2 °F 94% 30.28 in 1.2 mi ENE 3.5 mph - N/A   Mostly Cloudy
8:50 AM 69.8 °F - 66.2 °F 88% 30.28 in 3.0 mi NE 4.6 mph - N/A   Mostly Cloudy
8:53 AM 71.1 °F - 66.0 °F 84% 30.28 in 3.0 mi NNE 3.5 mph - N/A   Haze
9:12 AM 71.6 °F - 66.2 °F 83% 30.29 in 8.0 mi ENE 4.6 mph - N/A   Scattered Clouds
9:53 AM 73.9 °F - 66.9 °F 79% 30.28 in 10.0 mi ENE 4.6 mph - N/A   Scattered Clouds
10:53 AM 77.0 °F - 66.9 °F 71% 30.28 in 10.0 mi East 4.6 mph - N/A   Scattered Clouds
11:53 AM 78.1 °F - 66.0 °F 66% 30.27 in 7.0 mi ENE 5.8 mph - N/A   Scattered Clouds
12:53 PM 80.1 °F 82.1 °F 66.0 °F 62% 30.26 in 10.0 mi Variable 5.8 mph - N/A   Scattered Clouds
1:04 PM 82.4 °F 84.6 °F 66.2 °F 58% 30.26 in 10.0 mi NNE 5.8 mph - N/A   Mostly Cloudy
1:17 PM 80.6 °F 82.3 °F 64.4 °F 58% 30.25 in 10.0 mi Variable 4.6 mph - N/A   Scattered Clouds
1:53 PM 81.0 °F 82.5 °F 64.0 °F 56% 30.23 in 10.0 mi Variable 5.8 mph - N/A   Scattered Clouds
2:53 PM 82.0 °F 83.4 °F 64.0 °F 54% 30.21 in 10.0 mi ENE 8.1 mph - N/A   Mostly Cloudy
3:53 PM 82.0 °F 83.1 °F 63.0 °F 52% 30.20 in 10.0 mi East 8.1 mph - N/A   Scattered Clouds
4:53 PM 82.0 °F 83.0 °F 62.1 °F 51% 30.19 in 10.0 mi Variable 4.6 mph - N/A   Partly Cloudy
5:53 PM 82.0 °F 83.0 °F 62.1 °F 51% 30.20 in 10.0 mi ENE 8.1 mph - N/A   Partly Cloudy
6:53 PM 80.1 °F 81.5 °F 63.0 °F 56% 30.21 in 10.0 mi ENE 4.6 mph - N/A   Partly Cloudy
7:53 PM 78.1 °F - 63.0 °F 60% 30.22 in 10.0 mi ENE 5.8 mph - N/A   Partly Cloudy
8:53 PM 73.9 °F - 64.0 °F 71% 30.24 in 10.0 mi NE 8.1 mph - N/A   Partly Cloudy
9:53 PM 72.0 °F - 63.0 °F 73% 30.26 in 10.0 mi NE 5.8 mph - N/A   Partly Cloudy
10:53 PM 71.1 °F - 63.0 °F 75% 30.25 in 10.0 mi ENE 5.8 mph - N/A   Partly Cloudy
11:53 PM 70.0 °F - 63.0 °F 78% 30.25 in 10.0 mi ENE 5.8 mph - N/A   Partly Cloudy